CW2796 Weather Reports


Display with metric or nautical units.
time (UTC)temp
F
wind
direction
speed
MPH
gust
MPH
rain 1hr
in
rain 24hr
in
rain mn
in
humidity
%
barometer
mb
20240224051543 61 336 1.0 5.0 0.00 0.00 0.00 31 1017.4
20240224050050 61 0 0.0 4.0 0.00 0.00 0.00 31 1017.3
20240224044608 62 360 1.0 3.0 0.00 0.00 0.00 30 1017.3
20240224043050 63 0 0.0 4.0 0.00 0.00 0.00 29 1017.2
20240224041555 64 336 2.0 5.0 0.00 0.00 0.00 28 1017.2
20240224040049 64 0 2.0 9.0 0.00 0.00 0.00 27 1017.1
20240224034550 65 344 2.0 8.0 0.00 0.00 0.00 27 1017.0
20240224033055 65 323 4.0 11.0 0.00 0.00 0.00 27 1017.0
20240224031610 66 348 2.0 8.0 0.00 0.00 0.00 27 1017.1
20240224030046 66 326 2.0 8.0 0.00 0.00 0.00 26 1017.0
20240224024553 66 272 4.0 9.0 0.00 0.00 0.00 26 1017.1
20240224023051 67 341 3.0 9.0 0.00 0.00 0.00 26 1016.8
20240224021559 67 323 3.0 9.0 0.00 0.00 0.00 25 1016.9
20240224020047 68 334 4.0 9.0 0.00 0.00 0.00 25 1016.9
20240224014548 68 309 3.0 10.0 0.00 0.00 0.00 25 1016.8
20240224013055 69 328 3.0 8.0 0.00 0.00 0.00 24 1016.6
20240224011544 70 5 3.0 14.0 0.00 0.00 0.00 24 1016.8
20240224010057 71 288 6.0 12.0 0.00 0.00 0.00 23 1016.6
20240224004556 72 324 5.0 12.0 0.00 0.00 0.00 22 1016.4
20240224003052 72 347 5.0 13.0 0.00 0.00 0.00 21 1016.5
20240224001554 73 293 7.0 16.0 0.00 0.00 0.00 20 1016.5
20240224000104 73 302 6.0 14.0 0.00 0.00 0.00 21 1016.8
20240223234558 72 322 6.0 15.0 0.00 0.00 0.00 21 1016.8
20240223233050 73 350 8.0 14.0 0.00 0.00 0.00 19 1016.8
20240223231543 74 311 5.0 14.0 0.00 0.00 0.00 19 1016.9
20240223230045 76 281 4.0 13.0 0.00 0.00 0.00 18 1017.0
20240223224601 76 325 2.0 15.0 0.00 0.00 0.00 18 1017.0
20240223223107 76 5 4.0 14.0 0.00 0.00 0.00 18 1017.2
20240223221546 76 0 6.0 14.0 0.00 0.00 0.00 19 1017.4
20240223220111 76 324 6.0 14.0 0.00 0.00 0.00 19 1017.5
20240223214556 76 277 3.0 12.0 0.00 0.00 0.00 19 1017.5
20240223213053 74 14 3.0 15.0 0.00 0.00 0.00 21 1017.7
20240223211549 74 294 6.0 15.0 0.00 0.00 0.00 21 1017.8
20240223210102 72 34 6.0 16.0 0.00 0.00 0.00 22 1018.0
20240223204634 71 18 6.0 13.0 0.00 0.00 0.00 23 1018.2
20240223203055 71 287 5.0 14.0 0.00 0.00 0.00 22 1018.3
20240223201553 72 309 4.0 11.0 0.00 0.00 0.00 23 1018.7
20240223200049 71 360 4.0 12.0 0.00 0.00 0.00 24 1018.9
20240223194556 70 321 6.0 13.0 0.00 0.00 0.00 25 1019.7
20240223193050 70 319 3.0 12.0 0.00 0.00 0.00 25 1020.0
20240223191546 70 24 5.0 15.0 0.00 0.00 0.00 26 1020.3
20240223190052 70 303 5.0 12.0 0.00 0.00 0.00 26 1020.5
20240223184553 69 296 5.0 12.0 0.00 0.00 0.00 27 1020.6
20240223183056 68 346 5.0 13.0 0.00 0.00 0.00 28 1020.6
20240223181550 67 325 6.0 13.0 0.00 0.00 0.00 29 1020.6
20240223180101 66 273 3.0 13.0 0.00 0.00 0.00 30 1020.7
20240223174555 64 292 5.0 12.0 0.00 0.00 0.00 32 1020.6
20240223173054 64 315 5.0 12.0 0.00 0.00 0.00 33 1020.6
20240223171559 62 311 3.0 9.0 0.00 0.00 0.00 35 1020.7
20240223170052 62 311 4.0 9.0 0.00 0.00 0.00 35 1020.7
20240223164550 60 323 3.0 8.0 0.00 0.00 0.00 37 1021.0
20240223163054 59 292 3.0 9.0 0.00 0.00 0.00 39 1021.2
20240223161552 59 342 2.0 8.0 0.00 0.00 0.00 40 1021.2
20240223160052 58 0 2.0 7.0 0.00 0.00 0.00 42 1021.0
20240223154549 56 299 1.0 4.0 0.00 0.00 0.00 43 1020.9
20240223153057 56 0 0.0 0.0 0.00 0.00 0.00 46 1020.9
20240223151559 56 0 0.0 2.0 0.00 0.00 0.00 44 1020.6
20240223150047 56 340 1.0 5.0 0.00 0.00 0.00 44 1020.5
20240223144556 55 327 2.0 6.0 0.00 0.00 0.00 44 1020.3
20240223143042 55 9 2.0 5.0 0.00 0.00 0.00 45 1020.1
20240223141548 55 0 0.0 2.0 0.00 0.00 0.00 45 1019.9
20240223140057 56 337 3.0 13.0 0.00 0.00 0.00 44 1019.8
20240223134606 56 352 4.0 12.0 0.00 0.00 0.00 44 1019.5
20240223133107 56 323 7.0 15.0 0.00 0.00 0.00 43 1019.2
20240223131600 56 315 6.0 13.0 0.00 0.00 0.00 43 1019.3
20240223130050 56 346 7.0 13.0 0.00 0.00 0.00 44 1019.2
20240223124556 56 319 8.0 14.0 0.00 0.00 0.00 43 1019.3
20240223123110 57 331 7.0 13.0 0.00 0.00 0.00 42 1019.2
20240223121622 57 335 6.0 12.0 0.00 0.00 0.00 42 1019.2
20240223120056 57 317 6.0 11.0 0.00 0.00 0.00 41 1019.1
20240223114548 58 302 7.0 16.0 0.00 0.00 0.00 41 1019.1
20240223113058 58 345 6.0 13.0 0.00 0.00 0.00 41 1019.1
20240223111617 57 322 5.0 13.0 0.00 0.00 0.00 41 1019.1
20240223110056 57 327 6.0 13.0 0.00 0.00 0.00 41 1019.0
20240223104558 57 345 4.0 10.0 0.00 0.00 0.00 41 1019.1
20240223103050 58 328 4.0 11.0 0.00 0.00 0.00 41 1018.9
20240223101609 58 0 2.0 9.0 0.00 0.00 0.00 40 1019.1
20240223100105 58 340 4.0 10.0 0.00 0.00 0.00 40 1019.4
20240223094550 59 317 5.0 11.0 0.00 0.00 0.00 39 1019.5
20240223093050 59 333 5.0 10.0 0.00 0.00 0.00 39 1019.6
20240223091551 59 338 5.0 10.0 0.00 0.00 0.00 40 1019.9
20240223090044 59 322 4.0 9.0 0.00 0.00 0.00 40 1020.0
20240223084548 59 349 2.0 8.0 0.00 0.00 0.00 39 1020.0
20240223083049 59 360 2.0 8.0 0.00 0.00 0.00 39 1020.1
20240223081547 59 0 1.0 4.0 0.00 0.00 0.00 39 1020.2
20240223080048 59 0 1.0 4.0 0.00 0.00 0.00 38 1020.3
20240223074540 59 0 0.0 5.0 0.00 0.00 0.00 37 1020.3
20240223073047 59 69 2.0 4.0 0.00 0.00 0.00 37 1020.4
20240223071552 60 332 3.0 10.0 0.00 0.00 0.00 35 1020.4
20240223070049 60 323 2.0 9.0 0.00 0.00 0.00 36 1020.4
20240223064557 60 311 2.0 8.0 0.00 0.00 0.00 36 1020.4
20240223063049 61 277 1.0 6.0 0.00 0.00 0.00 36 1020.3
20240223061551 61 335 2.0 8.0 0.00 0.00 0.00 35 1020.2
20240223060054 61 0 4.0 8.0 0.00 0.00 0.00 35 1020.2
20240223054559 61 5 4.0 8.0 0.00 0.00 0.00 35 1020.2
20240223053059 62 350 5.0 9.0 0.00 0.00 0.00 35 1020.2